SP6PGH-13 Weather Reports


time (UTC)temp
F
wind
direction
speed
knots
gust
knots
rain 1hr
in
rain 24hr
in
rain mn
in
humidity
%
barometer
mb
20260504081126 71 264 1.7 6.1 0.00 0.00 0.00 39 999.8
20260504045611 54 114 1.7 3.5 0.00 0.00 0.00 61 999.4
20260504044110 54 102 1.7 3.5 0.00 0.00 0.00 60 999.3
20260504042609 53 120 1.7 3.5 0.00 0.00 0.00 61 999.4
20260504041108 52 102 0.0 0.0 0.00 0.00 0.00 65 999.4
20260504035607 50 102 0.0 0.0 0.00 0.00 0.00 67 999.4
20260504034106 49 282 0.0 0.0 0.00 0.00 0.00 70 999.4
20260504032605 51 282 0.0 0.0 0.00 0.00 0.00 66 999.2
20260504031104 51 336 0.0 1.7 0.00 0.00 0.00 64 999.1
20260504025603 53 106 1.7 3.5 0.00 0.00 0.00 60 998.7
20260504024102 53 132 1.7 3.5 0.00 0.00 0.00 60 998.7
20260504022601 54 95 2.6 4.3 0.00 0.00 0.00 58 998.6
20260504021100 55 90 2.6 5.2 0.00 0.00 0.00 58 998.7
20260504015559 55 94 0.9 3.5 0.00 0.00 0.00 56 998.7
20260504014058 56 96 1.7 4.3 0.00 0.00 0.00 54 998.6
20260504012557 56 88 1.7 3.5 0.00 0.00 0.00 53 998.5
20260504011056 56 108 0.9 3.5 0.00 0.00 0.00 55 998.6
20260504005555 56 94 0.9 2.6 0.00 0.00 0.00 56 998.6
20260504004054 55 64 0.9 2.6 0.00 0.00 0.00 59 998.7
20260504002553 56 132 1.7 3.5 0.00 0.00 0.00 58 998.8
20260504001052 56 104 1.7 4.3 0.00 0.00 0.00 57 998.8
20260503235551 56 83 1.7 3.5 0.00 0.00 0.00 57 998.8
20260503234050 56 114 0.9 4.3 0.00 0.00 0.00 56 998.9
20260503232549 57 127 1.7 3.5 0.00 0.00 0.00 55 999.0
20260503231048 58 88 0.9 3.5 0.00 0.00 0.00 53 999.1
20260503225547 59 89 0.9 2.6 0.00 0.00 0.00 51 999.3
20260503224046 59 126 0.9 3.5 0.00 0.00 0.00 49 999.2
20260503222545 60 128 0.0 1.7 0.00 0.00 0.00 49 999.4
20260503221044 61 127 0.0 1.7 0.00 0.00 0.00 47 999.4
20260503215543 61 96 0.0 2.6 0.00 0.00 0.00 47 999.5
20260503214041 62 138 0.0 1.7 0.00 0.00 0.00 45 999.4
20260503212541 63 348 0.9 3.5 0.00 0.00 0.00 44 999.5
20260503211039 63 23 0.9 2.6 0.00 0.00 0.00 44 999.5
20260503205539 64 146 0.9 2.6 0.00 0.00 0.00 44 999.6
20260503204038 64 132 0.9 2.6 0.00 0.00 0.00 43 999.6
20260503202537 65 106 0.9 3.5 0.00 0.00 0.00 42 999.6
20260503201036 65 162 0.9 2.6 0.00 0.00 0.00 42 999.6
20260503195535 65 156 0.9 2.6 0.00 0.00 0.00 42 999.5
20260503194034 65 126 0.0 1.7 0.00 0.00 0.00 42 999.5
20260503192533 66 116 0.0 1.7 0.00 0.00 0.00 40 999.4
20260503191032 67 114 0.0 1.7 0.00 0.00 0.00 38 999.4
20260503185531 68 101 0.9 2.6 0.00 0.00 0.00 37 999.2
20260503184030 69 83 0.0 1.7 0.00 0.00 0.00 35 999.1
20260503182529 70 102 0.0 1.7 0.00 0.00 0.00 35 998.9
20260503181028 71 58 0.0 1.7 0.00 0.00 0.00 33 998.9
20260503175527 73 162 0.9 2.6 0.00 0.00 0.00 31 998.7
20260503174026 75 127 0.9 1.7 0.00 0.00 0.00 29 998.7
20260503172524 76 222 0.9 3.5 0.00 0.00 0.00 27 998.7
20260503171023 78 114 1.7 3.5 0.00 0.00 0.00 27 998.6
20260503131007 80 252 2.6 6.1 0.00 0.00 0.00 23 1000.5